[[{"header":{"parameterUnit":"m.s-1","parameterCategory":1,"la1":30.2991,"la2":30.254,"lo1":-89.0895,"lo2":-89.0444,"dy":0.0017,"dx":0.0017,"nx":28,"ny":28,"refTime":"2024-10-20T09:00:00:Z","depth":0,"parameterNumber":2,"parameterNumberName":"U-component_of_WINDS"},"data":[0,0,0,0,0,0,0,0,0,0,0,0,0,0,0,0,0,0,0,0,0,0,0,0,0,0,0,0,0,0,0,0,0,0,0,0,0,0,0,0,0,0,0,0,0,0,0,0,0,0,0,0,0,0,0,0,0,0,-2.7572,-2.7573,0,-2.7628,-2.7629,-2.7629,-2.7523,-2.7519,-2.7516,-2.7512,-2.7571,-2.7576,-2.7581,0,0,0,0,0,0,0,0,0,0,0,0,0,-2.7374,-2.7378,-2.7572,-2.7573,-2.7574,-2.7628,-2.7629,-2.763,-2.7523,-2.7519,-2.7515,-2.7511,-2.757,-2.7575,-2.7581,0,0,0,0,0,0,0,0,0,0,0,0,0,-2.7448,-2.7379,-2.7572,-2.7527,-2.7524,-2.7628,-2.7629,-2.763,-2.7524,-2.7519,-2.7514,-2.7509,-2.7568,-2.7575,-2.7582,-2.7733,0,0,-2.7604,-2.7608,0,0,0,0,0,0,0,0,-2.7444,-2.7455,-2.7533,-2.753,-2.7527,-2.7563,-2.758,-2.7665,-2.7526,-2.7524,-2.7512,-2.7506,-2.7573,-2.7579,-2.7602,-2.7736,-2.7738,-2.7605,-2.7609,-2.7613,-2.7615,0,0,0,0,0,0,0,-2.7439,-2.7452,-2.7594,-2.7534,-2.753,-2.7504,-2.7509,-2.7596,-2.7578,-2.7524,-2.7516,-2.7524,-2.757,-2.7595,-2.7602,-2.7739,-2.7605,-2.7611,-2.7616,-2.7619,-2.8,-2.8005,0,0,0,0,0,0,-2.7439,-2.7449,-2.7593,-2.7596,-2.7471,-2.7512,-2.7517,-2.7557,-2.7576,-2.7574,-2.7529,-2.7519,-2.7585,-2.7594,-2.7604,-2.7783,-2.7612,-2.7619,-2.7624,-2.7994,-2.8001,-2.8007,0,0,0,0,0,0,-2.7435,-2.7453,-2.759,-2.752,-2.7536,-2.7521,-2.7566,-2.7561,-2.7585,-2.758,-2.7576,-2.7557,-2.7581,-2.7594,-2.7702,-2.7783,-2.7623,-2.7629,-2.7987,-2.7996,-2.8004,-2.8142,0,0,0,0,0,0,-2.743,-2.7452,-2.751,-2.7522,-2.754,-2.7688,-2.7571,-2.7566,-2.7598,-2.7586,-2.7606,-2.7604,-2.7578,-2.7691,-2.7709,-2.779,-2.7635,-2.798,-2.7991,-2.8002,-2.813,-2.8154,-2.8175,0,0,0,0,0,-2.7423,-2.7547,-2.7513,-2.7531,-2.7611,-2.7693,-2.7703,-2.767,-2.7605,-2.7663,-2.7659,-2.7604,-2.7771,-2.7703,-2.7722,-2.7807,-2.7975,-2.7988,-2.8001,-2.812,-2.8149,-2.8174,0,0,0,0,0,0,-2.7545,-2.7548,-2.7511,-2.7642,-2.7668,-2.7674,-2.7746,-2.7702,-2.7747,-2.7734,-2.7691,-2.7697,-2.7814,-2.782,-2.7745,-2.7954,-2.7862,-2.7879,-2.7946,-2.7974,-2.7996,-2.7993,-2.7641,0,0,0,0,0,-2.7587,-2.7652,-2.7651,-2.7766,-2.7781,-2.7762,-2.7796,-2.7768,-2.7793,-2.7804,-2.7808,-2.7836,-2.7894,-2.7934,-2.7987,-2.8129,-2.8132,-2.8197,-2.8219,-2.8237,-2.8254,-2.833,-2.8359,-2.805,-2.805,-2.805,0,0,-2.7675,-2.7684,-2.7728,-2.7791,-2.7808,-2.7877,-2.7772,-2.785,-2.7901,-2.7816,-2.7919,-2.7922,-2.795,-2.8076,-2.8131,-2.8085,-2.8339,-2.8254,-2.8268,-2.8275,-2.8346,-2.8375,-2.8401,-2.8059,-2.8057,-2.8056,0,0,-2.787,-2.7883,-2.7981,-2.8,-2.8026,-2.8012,-2.8036,-2.8049,-2.8048,-2.815,-2.8088,-2.8148,-2.8249,-2.8271,-2.8296,-2.8498,-2.8449,-2.8516,-2.8634,-2.8709,-2.8733,-2.8755,-2.8828,-2.8855,-2.8532,-2.8532,-2.8532,0,-2.7977,-2.8078,-2.8038,-2.812,-2.8149,-2.8074,-2.8173,-2.8193,-2.8237,-2.8259,-2.8206,-2.8331,-2.8344,-2.8475,-2.8524,-2.8545,-2.8572,-2.8515,-2.8733,-2.8754,-2.8773,-2.8843,-2.887,-2.854,-2.8539,-2.8539,-2.8538,0,-2.8208,-2.8279,-2.8355,-2.8398,-2.8435,-2.8526,-2.8499,-2.8542,-2.851,-2.8501,-2.8606,-2.8618,-2.8673,-2.8701,-2.8671,-2.8827,-2.8798,-2.874,-2.8647,-2.8811,-2.8876,-2.8903,-2.8552,-2.8549,-2.8547,-2.8545,0,0,-2.8485,-2.8502,-2.8531,-2.855,-2.8572,-2.8627,-2.8713,-2.8766,-2.8804,-2.8835,-2.8907,-2.8994,-2.894,-2.8968,-2.8939,-2.9004,-2.9164,-2.8937,-2.8937,-2.8981,-2.9338,-2.9384,-2.9416,-2.913,-2.9135,-2.9139,-2.9337,0,-2.8681,-2.8829,-2.8795,-2.8942,-2.9007,-2.8936,-2.901,-2.9033,-2.9026,-2.9081,-2.9073,-2.9136,-2.9059,-2.9075,-2.9136,-2.9132,-2.9236,-2.9117,-2.9198,-2.9202,-2.9197,-2.9449,-2.9498,-2.9685,-2.9362,-2.9366,-2.9369,0,-2.893,-2.897,-2.9124,-2.9135,-2.9161,-2.9229,-2.9275,-2.9327,-2.935,-2.9341,-2.9371,-2.9329,-2.9414,-2.9318,-2.9436,-2.9355,-2.9386,-2.9389,-2.9395,-2.9404,-2.9298,-2.9467,-2.9743,-2.9772,-2.9408,-2.9405,-2.9402,0,-2.9119,-2.9211,-2.9315,-2.9333,-2.9348,-2.9398,-2.9406,-2.9424,-2.9458,-2.9497,-2.9518,-2.9567,-2.9595,-2.9633,-2.9605,-2.9538,-2.9728,-2.9629,-2.9724,-2.9725,-2.977,-2.9768,-3.0057,-2.9786,-2.9785,-2.9785,-2.9784,0,-2.9343,-2.944,-2.94,-2.9465,-2.9572,-2.953,-2.9637,-2.9637,-2.9653,-2.9716,-2.9655,-2.9716,-2.9674,-2.9731,-2.9709,-2.9811,-2.9823,-2.9819,-2.9812,-2.9826,-2.9827,-2.9848,-2.9835,-2.9792,-2.979,-2.9789,-2.9788,0,-2.9574,-2.9551,-2.966,-2.9665,-2.9668,-2.9747,-2.9751,-2.981,-2.9798,-2.9879,-2.9895,-2.9877,-2.9941,-2.9915,-2.9983,-2.9968,-3.0099,-3.0074,-3.0092,-3.0086,-3.0183,-3.0175,-3.0498,-3.0539,-3.0239,-3.0241,-3.0244,0,-2.972,-2.9793,-2.9805,-2.9843,-2.9856,-2.9917,-2.9951,-2.9912,-2.9949,-2.998,-3.0037,-3.0094,-3.014,-3.0245,-3.0238,-3.0289,-3.0267,-3.0376,-3.0274,-3.0286,-3.0271,-3.0268,-3.0276,-3.0398,-3.0401,-3.0404,-3.0406,0,-2.9982,-2.9967,-3.0018,-3.0065,-3.0106,-3.0142,-3.0171,-3.0206,-3.0167,-3.0213,-3.0277,-3.0312,-3.038,-3.0439,-3.0485,-3.0493,-3.0445,-3.0438,-3.0463,-3.0479,-3.0487,-3.0486,-3.015,-3.0432,-3.0429,-3.0427,-3.0426,-3.0425,-3.0177,-3.0239,-3.0257,-3.0315,-3.0333,-3.0362,-3.0418,-3.0412,-3.0465,-3.0518,-3.049,-3.0566,-3.0585,-3.0641,-3.0656,-3.0714,-3.0672,-3.0708,-3.0717,-3.0728,-3.0741,-3.0475,-3.0722,-3.0721,-3.0721,-3.072,-3.072,0,-3.0438,-3.0445,-3.0499,-3.0542,-3.0588,-3.0536,-3.0566,-3.0608,-3.0675,-3.0697,-3.0741,-3.0815,-3.0872,-3.0868,-3.092,-3.0967,-3.0946,-3.0983,-3.098,-3.0983,-3.0775,-3.075,-3.0999,-3.0999,-3.0999,-3.0999,-3.0999,-3.0998,-3.0579,-3.0681,-3.0668,-3.0778,-3.0784,-3.0857,-3.0878,-3.0905,-3.0922,-3.1007,-3.1053,-3.105,-3.1062,-3.1114,-3.1163,-3.116,-3.1184,-3.1229,-3.1219,-3.1025,-3.0998,-3.0972,-3.0947,-3.1234,-3.1234,-3.1422,-3.1423,-3.1425]},{"header":{"parameterUnit":"m.s-1","parameterCategory":1,"la1":30.2991,"la2":30.254,"lo1":-89.0895,"lo2":-89.0444,"dy":0.0017,"dx":0.0017,"nx":28,"ny":28,"refTime":"2024-10-20T09:00:00:Z","depth":0,"parameterNumber":3,"parameterNumberName":"V-component_of_WINDS"},"data":[0,0,0,0,0,0,0,0,0,0,0,0,0,0,0,0,0,0,0,0,0,0,0,0,0,0,0,0,0,0,0,0,0,0,0,0,0,0,0,0,0,0,0,0,0,0,0,0,0,0,0,0,0,0,0,0,0,0,-3.5013,-3.5013,0,-3.5045,-3.5046,-3.5046,-3.5009,-3.5008,-3.5006,-3.5005,-3.5037,-3.5039,-3.5041,0,0,0,0,0,0,0,0,0,0,0,0,0,-3.4915,-3.4917,-3.5013,-3.5013,-3.5013,-3.5045,-3.5046,-3.5046,-3.5009,-3.5008,-3.5006,-3.5004,-3.5036,-3.5038,-3.5041,0,0,0,0,0,0,0,0,0,0,0,0,0,-3.4953,-3.4917,-3.5013,-3.4999,-3.4998,-3.5045,-3.5046,-3.5046,-3.501,-3.5008,-3.5006,-3.5004,-3.5035,-3.5038,-3.5041,-3.5103,0,0,-3.5051,-3.5052,0,0,0,0,0,0,0,0,-3.4951,-3.4957,-3.5001,-3.5,-3.4999,-3.5021,-3.5023,-3.5065,-3.501,-3.5005,-3.5005,-3.5003,-3.5033,-3.5036,-3.5047,-3.5104,-3.5106,-3.5051,-3.5053,-3.5055,-3.5056,0,0,0,0,0,0,0,-3.4948,-3.4955,-3.5025,-3.5001,-3.5,-3.499,-3.4993,-3.5031,-3.503,-3.5006,-3.5003,-3.5007,-3.5032,-3.5044,-3.5047,-3.5106,-3.5051,-3.5054,-3.5056,-3.5057,-3.5213,-3.5215,0,0,0,0,0,0,-3.4948,-3.4953,-3.5024,-3.5026,-3.497,-3.4994,-3.4997,-3.5016,-3.503,-3.503,-3.5009,-3.5006,-3.5039,-3.5044,-3.5048,-3.5119,-3.5055,-3.5058,-3.506,-3.5211,-3.5214,-3.5216,0,0,0,0,0,0,-3.4946,-3.4954,-3.5023,-3.4989,-3.4997,-3.4997,-3.5019,-3.5018,-3.503,-3.5033,-3.5032,-3.5021,-3.5038,-3.5044,-3.5089,-3.512,-3.5059,-3.5062,-3.5208,-3.5212,-3.5215,-3.5263,0,0,0,0,0,0,-3.4943,-3.4954,-3.4978,-3.499,-3.4999,-3.5065,-3.5021,-3.502,-3.5035,-3.5031,-3.5044,-3.5044,-3.5037,-3.5085,-3.5092,-3.5123,-3.5065,-3.5206,-3.521,-3.5214,-3.5259,-3.5268,-3.5276,0,0,0,0,0,-3.494,-3.4991,-3.498,-3.4989,-3.503,-3.5067,-3.5072,-3.5063,-3.5038,-3.5062,-3.5063,-3.5044,-3.5116,-3.509,-3.5098,-3.513,-3.5204,-3.5209,-3.5213,-3.5255,-3.5266,-3.5275,0,0,0,0,0,0,-3.4982,-3.4992,-3.498,-3.5037,-3.5051,-3.506,-3.509,-3.5075,-3.5096,-3.5091,-3.5078,-3.5082,-3.5129,-3.5135,-3.5105,-3.5189,-3.5155,-3.5162,-3.5184,-3.5195,-3.5203,-3.52,-3.5067,0,0,0,0,0,-3.4998,-3.5028,-3.5035,-3.5084,-3.5092,-3.509,-3.5106,-3.5097,-3.5112,-3.5117,-3.5122,-3.5136,-3.5161,-3.5179,-3.5202,-3.526,-3.5261,-3.5286,-3.5295,-3.5301,-3.5307,-3.5335,-3.5346,-3.5232,-3.5232,-3.5232,0,0,-3.5032,-3.5041,-3.506,-3.5093,-3.5103,-3.5133,-3.5095,-3.5129,-3.5151,-3.5122,-3.5165,-3.5169,-3.5184,-3.5235,-3.5257,-3.524,-3.5339,-3.5308,-3.5313,-3.5315,-3.5342,-3.5352,-3.5362,-3.5236,-3.5235,-3.5235,0,0,-3.5107,-3.5118,-3.5159,-3.517,-3.5186,-3.5184,-3.5194,-3.5205,-3.5207,-3.525,-3.5228,-3.5253,-3.5298,-3.5309,-3.532,-3.5398,-3.538,-3.5406,-3.5449,-3.5477,-3.5486,-3.5494,-3.5519,-3.5529,-3.5412,-3.5412,-3.5412,0,-3.5146,-3.5191,-3.5182,-3.5217,-3.5231,-3.5207,-3.5247,-3.5258,-3.5281,-3.529,-3.5271,-3.5326,-3.5334,-3.5386,-3.5405,-3.5415,-3.5425,-3.5404,-3.5486,-3.5493,-3.55,-3.5525,-3.5535,-3.5415,-3.5415,-3.5414,-3.5414,0,-3.5237,-3.5269,-3.53,-3.5322,-3.534,-3.5378,-3.5372,-3.5391,-3.5381,-3.5381,-3.5424,-3.5433,-3.5457,-3.5469,-3.546,-3.5519,-3.5508,-3.5488,-3.5453,-3.5514,-3.5537,-3.5546,-3.5419,-3.5418,-3.5417,-3.5417,0,0,-3.5341,-3.5357,-3.5368,-3.5377,-3.5392,-3.5416,-3.5451,-3.5475,-3.5491,-3.5507,-3.5535,-3.5573,-3.5554,-3.5567,-3.5558,-3.5583,-3.5642,-3.5559,-3.5559,-3.5573,-3.5705,-3.5719,-3.5731,-3.563,-3.5632,-3.5634,-3.5704,0,-3.5415,-3.5477,-3.5469,-3.5528,-3.5555,-3.5533,-3.5563,-3.5575,-3.5576,-3.5598,-3.5598,-3.5625,-3.5598,-3.5605,-3.5629,-3.563,-3.5668,-3.5625,-3.5655,-3.5656,-3.565,-3.5743,-3.5758,-3.5824,-3.5713,-3.5714,-3.5715,0,-3.551,-3.5529,-3.5591,-3.56,-3.5611,-3.5639,-3.5659,-3.5682,-3.5694,-3.5693,-3.5707,-3.5693,-3.5727,-3.5693,-3.5739,-3.571,-3.5721,-3.5723,-3.5726,-3.5727,-3.5688,-3.5744,-3.5845,-3.5854,-3.5729,-3.5728,-3.5727,0,-3.5576,-3.5618,-3.5659,-3.5668,-3.5681,-3.57,-3.5706,-3.5717,-3.5731,-3.5749,-3.5757,-3.5779,-3.579,-3.5806,-3.5799,-3.5775,-3.5845,-3.5811,-3.5843,-3.5843,-3.5858,-3.5856,-3.5959,-3.5869,-3.5868,-3.5868,-3.5868,0,-3.5659,-3.5697,-3.5689,-3.5715,-3.5756,-3.5746,-3.5787,-3.579,-3.5799,-3.5824,-3.5806,-3.5829,-3.5819,-3.5841,-3.5835,-3.5873,-3.5878,-3.5877,-3.5874,-3.5877,-3.5877,-3.5884,-3.5878,-3.5871,-3.587,-3.587,-3.5869,0,-3.5739,-3.5736,-3.578,-3.5788,-3.579,-3.582,-3.5826,-3.585,-3.5848,-3.588,-3.5886,-3.5884,-3.5909,-3.5904,-3.5931,-3.5927,-3.5974,-3.5967,-3.597,-3.5967,-3.5999,-3.5996,-3.6108,-3.6121,-3.6024,-3.6025,-3.6026,0,-3.5791,-3.582,-3.5831,-3.5846,-3.5853,-3.5879,-3.5893,-3.5883,-3.5899,-3.5914,-3.5935,-3.5959,-3.5977,-3.6018,-3.6018,-3.6039,-3.6031,-3.6069,-3.6034,-3.6035,-3.6029,-3.6027,-3.6028,-3.6075,-3.6076,-3.6077,-3.6078,0,-3.5883,-3.588,-3.5902,-3.5922,-3.594,-3.5956,-3.597,-3.5983,-3.5974,-3.5993,-3.6018,-3.6032,-3.606,-3.6083,-3.6102,-3.6106,-3.609,-3.6089,-3.6098,-3.61,-3.6099,-3.6098,-3.5987,-3.6086,-3.6086,-3.6085,-3.6085,-3.6084,-3.595,-3.5973,-3.5984,-3.6008,-3.6018,-3.6031,-3.6052,-3.6054,-3.6075,-3.6097,-3.609,-3.6118,-3.6128,-3.6152,-3.6159,-3.618,-3.6166,-3.6178,-3.6181,-3.6184,-3.6187,-3.6098,-3.6184,-3.6184,-3.6184,-3.6183,-3.6183,0,-3.6039,-3.6045,-3.6067,-3.6087,-3.6105,-3.6089,-3.6103,-3.612,-3.6145,-3.6156,-3.6174,-3.6202,-3.6224,-3.6226,-3.6246,-3.6263,-3.6256,-3.6268,-3.6266,-3.6267,-3.62,-3.619,-3.6274,-3.6274,-3.6274,-3.6273,-3.6273,-3.6273,-3.6088,-3.6126,-3.6124,-3.6166,-3.6171,-3.6199,-3.6208,-3.6219,-3.6228,-3.626,-3.6278,-3.6279,-3.6286,-3.6306,-3.6325,-3.6325,-3.6332,-3.6347,-3.6344,-3.6281,-3.6272,-3.6263,-3.6254,-3.635,-3.635,-3.6409,-3.641,-3.641]}]]